Weather History for Pecs, Hungary

Change the Weather History Date:

Thursday, May 9, 2013

  Actual Average Record
Temperature  
Mean Temperature 64 °F -  
Max Temperature 74 °F 72 °F - ()
Min Temperature 54 °F 52 °F - ()
Degree Days  
Heating Degree Days 1    
Growing Degree Days 14 (Base 50)    
Moisture  
Dew Point 51 °F    
Average Humidity 61    
Maximum Humidity 88    
Minimum Humidity 37    
Precipitation  
Precipitation 0.00 in 0.09 in - ()
Sea Level Pressure  
Sea Level Pressure 30.04 in    
Wind  
Wind Speed 7 mph ()    
Max Wind Speed 13 mph    
Max Gust Speed -    
Visibility 8.5 miles    
Events      
T = Trace of Precipitation, MM = Missing Value Source: Averaged Metar Reports

Daily Weather History Graph

Daily Weather History Graph

Search for Another Location

Airport:

Trip Planner

Search our weather history database for the weather conditions in past years. The results will help you decide how hot, cold, wet, or windy it might be!

Date:

Astronomy

May. 09, 2013 Rise Set
Actual Time 5:22 AM CEST 8:05 PM CEST
Civil Twilight 4:48 AM CEST 8:39 PM CEST
Nautical Twilight 4:05 AM CEST 9:23 PM CEST
Astronomical Twilight 3:14 AM CEST 10:13 PM CEST
Moon 4:58 AM CEST (5/9) 7:42 PM CEST (5/9)
Length of Visible Light 15h 51m
Length of Day
14h 42m
Waning Crescent, 0% of the Moon is Illuminated
May 9
Waning Crescent
May 10
New
May 18
First Quarter
May 25
Full
May 31
Last Quarter

Hourly Weather History & Observations

Time (CEST) Temp. Dew Point Humidity Pressure Visibility Wind Dir Wind Speed Gust Speed Precip Events Conditions
12:45 AM 59.0 °F 53.6 °F 82% 30.01 in - ENE 6.9 mph - N/A   Clear
1:45 AM 55.4 °F 51.8 °F 88% 30.01 in - ENE 6.9 mph - N/A   Clear
2:00 AM 55 °F 52 °F 88% 30.01 in 12 mi ENE 6.7 mph - -   Partly Cloudy
2:45 AM 57.2 °F 51.8 °F 82% 30.01 in - ENE 6.9 mph - N/A   Clear
3:45 AM 57.2 °F 51.8 °F 82% 30.01 in - ENE 6.9 mph - N/A   Clear
4:45 AM 57.2 °F 51.8 °F 82% 30.01 in - ENE 6.9 mph - N/A   Clear
5:45 AM 59.0 °F 51.8 °F 77% 30.04 in - ENE 6.9 mph - N/A   Clear
6:15 AM 59.0 °F 51.8 °F 77% 30.04 in - ENE 6.9 mph - N/A   Clear
6:45 AM 59.0 °F 51.8 °F 77% 30.04 in - ENE 6.9 mph - N/A   Clear
7:00 AM - - N/A% - - East 9.2 mph - N/A   Clear
7:15 AM 60.8 °F 53.6 °F 77% 30.04 in - East 8.1 mph - N/A   Clear
7:45 AM 64.4 °F 53.6 °F 68% 30.06 in - East 9.2 mph - N/A   Clear
8:00 AM 64 °F 54 °F 61% 30.04 in 19 mi East 8.9 mph - -   Partly Cloudy
8:15 AM 64.4 °F 53.6 °F 68% 30.06 in - East 9.2 mph - N/A   Clear
8:45 AM 64.4 °F 53.6 °F 68% 30.06 in - East 8.1 mph - N/A   Clear
9:15 AM 64.4 °F 53.6 °F 68% 30.06 in - East 8.1 mph - N/A   Clear
9:45 AM 64.4 °F 53.6 °F 68% 30.06 in - East 6.9 mph - N/A   Clear
10:00 AM - - N/A% - - East 8.1 mph - N/A   Clear
10:15 AM 68.0 °F 53.6 °F 60% 30.06 in - East 6.9 mph - N/A   Clear
10:45 AM 68.0 °F 53.6 °F 60% 30.06 in - SE 8.1 mph - N/A   Clear
11:15 AM 68.0 °F 53.6 °F 60% 30.06 in 6.2 mi ESE 11.5 mph - N/A   Mostly Cloudy
11:45 AM 69.8 °F 55.4 °F 60% 30.06 in 6.2 mi ESE 10.4 mph - N/A   Mostly Cloudy
12:15 PM 71.6 °F 51.8 °F 50% 30.06 in 6.2 mi SE 12.7 mph - N/A   Scattered Clouds
12:45 PM 71.6 °F 51.8 °F 50% 30.06 in 6.2 mi SE 12.7 mph - N/A   Scattered Clouds
1:00 PM - - N/A% - - SE 11.5 mph - N/A   Dust Whirls
1:15 PM 71.6 °F 51.8 °F 50% 30.06 in 6.2 mi SSE 10.4 mph - N/A   Scattered Clouds
1:45 PM 71.6 °F 51.8 °F 50% 30.06 in 6.2 mi SE 10.4 mph - N/A   Mostly Cloudy
2:00 PM 72 °F 53 °F 40% 30.05 in 31 mi SE 11.2 mph - -   Partly Cloudy
2:15 PM 71.6 °F 50.0 °F 46% 30.06 in - SE 9.2 mph - N/A   Clear
2:45 PM 73.4 °F 46.4 °F 38% 30.06 in - ESE 9.2 mph - N/A   Clear
3:15 PM 73.4 °F 51.8 °F 47% 30.04 in - ESE 8.1 mph - N/A   Clear
3:45 PM 73.4 °F 51.8 °F 47% 30.04 in - ESE 6.9 mph - N/A   Clear
4:00 PM - - N/A% - - East 6.9 mph - N/A   Clear
4:15 PM 73.4 °F 50.0 °F 44% 30.04 in - SE 9.2 mph - N/A   Clear
4:45 PM 73.4 °F 46.4 °F 38% 30.04 in - SE 12.7 mph - N/A   Clear
5:15 PM 71.6 °F 48.2 °F 43% 30.04 in - ESE 11.5 mph - N/A   Clear
5:45 PM 71.6 °F 48.2 °F 43% 30.04 in - ESE 10.4 mph - N/A   Clear
6:15 PM 69.8 °F 48.2 °F 46% 30.04 in - SE 10.4 mph - N/A   Clear
6:45 PM 69.8 °F 44.6 °F 40% 30.04 in - East 8.1 mph - N/A   Clear
7:15 PM 68.0 °F 42.8 °F 40% 30.04 in - East 6.9 mph - N/A   Clear
7:45 PM 66.2 °F 46.4 °F 49% 30.04 in - East 5.8 mph - N/A   Clear
8:00 PM 66 °F 46 °F 37% 30.02 in 25 mi East 6.7 mph - -   Partly Cloudy
8:45 PM 62.6 °F 48.2 °F 59% 30.04 in - East 4.6 mph - N/A   Clear
9:15 PM 60.8 °F 50.0 °F 68% 30.04 in - ESE 8.1 mph - N/A   Clear
9:45 PM 57.2 °F 50.0 °F 77% 30.04 in - ESE 6.9 mph - N/A   Clear
10:45 PM 57.2 °F 50.0 °F 77% 30.04 in - East 5.8 mph - N/A   Clear
11:45 PM 55.4 °F 48.2 °F 77% 30.04 in - NE 2.3 mph - N/A   Clear